Location: Unspecified
(0.0000°N, 0.0000°E)
Time: 00:34:12
(UTC+00:00)

CZ-3C DEB - Pass Details

Date: 19 February 2026
Orbit: 506 x 35764 km, 20.4° (Epoch: 1 August)

Event Time Altitude Azimuth Distance (km) Brightness Sun altitude
Rises 14:42:59 0° 237° (WSW) 5,335 ? 51.3°
Reaches altitude 10° 14:45:09 10° 232° (SW) 5,009 ? 50.8°
Maximum altitude 20:55:07 72° 20° (NNE) 34,422 ? -39.4°
Enters shadow 23:28:48 64° 358° (N) 19,923 ? -74.3°
Exits shadow 00:26:55 40° 49° (NE) 9,049 ? -78.5°
Drops below altitude 10° 00:40:23 10° 69° (ENE) 7,513 ? -77.2°
Sets 00:43:43 0° 73° (ENE) 7,515 ? -76.7°
